Voltar ao catálogo

FREGAT DEB

AtivoUNKNOWN
NORAD 45999·DEBRIS·🇷🇺 Russia

Lançado Jul 18, 2011 de Baikonur Cosmodrome

Loading…

Próximas Passagens (próximas 24 horas)

TLE

AtualizadoSource: Space-Track

Época: Sep 11, 2026, 03:22 UTC

1 45999U 11037HA  26254.14084519 -.00000174  00000-0 -32542-3 0  9992
2 45999  51.4651 161.4611 2136026 209.2710 136.9714 10.06363852224813

Acompanhe FREGAT DEB em tempo real com AllMySat

Download on the App Store